CW3224 Weather Reports


time (UTC)temp
F
wind
direction
speed
knots
gust
knots
rain 1hr
in
rain 24hr
in
rain mn
in
humidity
%
barometer
mb
20260904050442 65 185 0.0 0.0 0.00 0.16 0.00 93 1010.7
20260904045441 65 187 0.0 0.0 0.00 0.16 0.00 93 1010.7
20260904044442 65 187 0.0 0.0 0.00 0.16 0.00 92 1010.7
20260904043435 65 187 0.0 0.0 0.00 0.16 0.00 92 1010.7
20260904042436 65 191 0.0 0.0 0.00 0.16 0.00 92 1010.8
20260904041435 65 191 0.0 0.0 0.00 0.16 0.00 92 1010.8
20260904040434 65 191 0.0 0.0 0.00 0.16 0.00 92 1010.8
20260904035904 65 191 0.0 0.0 0.00 0.16 0.16 91 1010.8
20260904034420 65 191 0.0 0.0 0.00 0.16 0.16 91 1011.1
20260904033420 66 191 0.0 0.0 0.00 0.16 0.16 92 1011.1
20260904032900 66 191 0.0 0.0 0.00 0.16 0.16 92 1011.0
20260904031420 66 191 0.0 0.0 0.00 0.16 0.16 91 1011.0
20260904030407 66 191 0.0 0.0 0.00 0.16 0.16 91 1011.0
20260904025848 66 191 0.0 0.0 0.00 0.16 0.16 91 1010.9
20260904024408 67 191 0.0 0.0 0.00 0.16 0.16 91 1011.2
20260904023407 67 191 0.0 0.0 0.00 0.16 0.16 91 1011.2
20260904022356 67 191 0.0 0.0 0.00 0.16 0.16 91 1011.2
20260904021354 67 191 0.0 0.0 0.00 0.16 0.16 91 1011.3
20260904020354 67 191 0.0 0.0 0.00 0.16 0.16 91 1011.3
20260904020307 67 191 0.0 0.0 0.00 0.16 0.16 91 1011.5
20260904014351 68 191 0.0 0.0 0.00 0.16 0.16 91 1011.4
20260904013350 68 191 0.0 0.0 0.00 0.16 0.16 90 1011.4
20260904012351 68 191 0.0 0.0 0.00 0.16 0.16 90 1011.6
20260904011350 68 191 0.0 0.0 0.00 0.16 0.16 90 1011.5
20260904010351 69 191 0.0 0.0 0.00 0.16 0.16 90 1011.5
20260904005348 69 191 0.0 0.0 0.00 0.16 0.16 90 1011.3
20260904004823 69 191 0.0 0.0 0.00 0.16 0.16 90 1011.3
20260904003347 69 191 0.0 0.0 0.00 0.16 0.16 89 1011.3
20260904002348 69 191 0.0 0.0 0.00 0.16 0.16 89 1010.9
20260904001348 70 191 0.0 0.0 0.00 0.16 0.16 89 1010.6
20260904000349 70 191 0.0 0.0 0.00 0.16 0.16 89 1010.6
20260903235340 70 191 0.0 0.0 0.00 0.16 0.16 89 1010.8
20260903234340 71 191 0.0 0.0 0.00 0.16 0.16 88 1010.6
20260903233340 71 191 0.0 0.0 0.00 0.16 0.16 88 1010.6
20260903232340 71 191 0.0 0.0 0.00 0.16 0.16 87 1010.7
20260903231340 72 191 0.0 0.0 0.00 0.16 0.16 87 1010.9
20260903230338 72 191 0.0 0.0 0.00 0.16 0.16 87 1010.9
20260903225338 72 191 0.0 0.0 0.00 0.16 0.16 87 1010.7
20260903224337 73 191 0.0 0.0 0.00 0.16 0.16 87 1010.7
20260903223337 73 191 0.0 0.0 0.00 0.16 0.16 86 1010.7
20260903222339 73 191 0.0 0.0 0.00 0.16 0.16 86 1011.3
20260903221336 73 191 0.0 0.0 0.00 0.16 0.16 86 1011.3
20260903220337 73 191 0.0 0.0 0.00 0.16 0.16 85 1011.3
20260903215820 73 191 0.0 0.0 0.00 0.16 0.16 85 1011.3
20260903214336 73 191 0.0 0.0 0.00 0.16 0.16 85 1011.1
20260903213336 74 191 0.0 0.0 0.00 0.16 0.16 84 1011.1
20260903212336 74 191 0.0 0.0 0.00 0.16 0.16 84 1011.3
20260903211327 74 191 0.0 0.0 0.00 0.16 0.16 84 1011.2
20260903210326 74 190 0.0 0.0 0.00 0.16 0.16 85 1011.2
20260903205326 74 191 0.0 0.0 0.00 0.16 0.16 84 1011.2
20260903204325 74 191 0.0 0.0 0.00 0.16 0.16 84 1011.3
20260903203804 74 129 0.0 0.0 0.00 0.16 0.16 84 1011.3
20260903202323 74 129 0.0 0.0 0.00 0.16 0.16 84 1011.3
20260903201325 74 129 0.0 0.0 0.00 0.16 0.16 83 1011.3
20260903200806 74 129 0.0 0.0 0.00 0.16 0.16 83 1011.3
20260903195324 73 94 0.0 0.0 0.00 0.16 0.16 84 1011.6
20260903194323 73 155 0.0 0.0 0.00 0.16 0.16 84 1011.8
20260903193325 73 155 0.0 0.0 0.00 0.16 0.16 84 1011.8
20260903192316 73 156 0.0 0.0 0.00 0.16 0.16 84 1011.9
20260903191315 73 161 0.0 0.0 0.00 0.16 0.16 85 1011.9
20260903190315 72 139 0.0 0.0 0.00 0.16 0.16 85 1011.9
20260903185746 72 85 0.0 0.0 0.00 0.16 0.16 84 1012.3
20260903184753 72 59 0.9 2.6 0.00 0.16 0.16 85 1012.3
20260903183311 71 75 0.0 2.6 0.00 0.16 0.16 85 1012.3
20260903182309 71 180 0.0 1.7 0.00 0.16 0.16 85 1012.4
20260903181311 70 152 0.9 2.6 0.00 0.16 0.16 86 1012.5
20260903180309 70 112 0.9 1.7 0.00 0.16 0.16 87 1012.5
20260903175310 69 59 0.0 2.6 0.00 0.16 0.16 87 1012.8
20260903174755 69 59 0.0 2.6 0.00 0.16 0.16 87 1012.8
20260903173311 69 50 0.0 2.6 0.00 0.16 0.16 88 1012.8
20260903172750 69 69 0.0 1.7 0.00 0.16 0.16 90 1012.9
20260903171752 69 71 0.0 1.7 0.00 0.16 0.16 90 1012.7
20260903170310 69 68 0.0 1.7 0.00 0.16 0.16 91 1012.7
20260903165259 68 68 0.0 0.9 0.00 0.16 0.16 92 1012.8
20260903164300 67 68 0.0 0.9 0.00 0.16 0.16 92 1012.8
20260903163300 67 69 0.0 1.7 0.00 0.16 0.16 93 1012.8
20260903162258 67 356 0.0 0.9 0.00 0.16 0.16 93 1012.9
20260903161251 66 301 0.0 1.7 0.00 0.16 0.16 93 1012.9
20260903160729 66 301 0.0 2.6 0.00 0.16 0.16 93 1012.9
20260903155252 66 301 0.0 1.7 0.00 0.16 0.16 93 1013.0
20260903154250 66 301 0.0 0.9 0.00 0.16 0.16 93 1013.3
20260903153235 65 301 0.0 0.0 0.00 0.16 0.16 94 1013.3
20260903152235 65 142 0.0 0.0 0.00 0.16 0.16 94 1013.6
20260903151236 65 143 0.0 0.0 0.00 0.16 0.16 94 1013.5
20260903150235 65 143 0.0 0.0 0.00 0.16 0.16 94 1013.5
20260903145235 64 301 0.0 0.0 0.00 0.16 0.16 94 1013.7
20260903144235 64 301 0.0 0.0 0.00 0.16 0.16 94 1013.8
20260903143728 64 301 0.0 0.0 0.00 0.16 0.16 93 1013.8
20260903142235 64 301 0.0 0.0 0.00 0.16 0.16 94 1013.8
20260903141237 63 301 0.0 0.0 0.00 0.16 0.16 94 1014.0
20260903140219 63 142 0.0 0.0 0.00 0.16 0.16 94 1014.0
20260903135219 63 142 0.0 0.0 0.00 0.16 0.16 94 1014.3
20260903134219 62 301 0.0 0.0 0.00 0.16 0.16 94 1014.1
20260903133219 62 301 0.0 0.0 0.00 0.16 0.16 93 1014.1
20260903132220 62 301 0.0 0.0 0.00 0.16 0.16 93 1014.0
20260903131210 62 301 0.0 0.0 0.00 0.16 0.16 93 1014.2
20260903130209 62 301 0.0 0.0 0.00 0.16 0.16 93 1014.2
20260903125209 62 301 0.0 0.0 0.00 0.16 0.16 93 1014.3
20260903124208 62 301 0.0 0.0 0.00 0.16 0.16 93 1014.5
20260903123207 62 301 0.0 0.0 0.00 0.16 0.16 93 1014.5
20260903122208 62 301 0.0 0.0 0.00 0.16 0.16 93 1014.6
20260903121153 62 301 0.0 0.0 0.00 0.16 0.16 93 1014.6
20260903120152 61 301 0.0 0.0 0.00 0.16 0.16 93 1014.6
20260903115154 61 301 0.0 0.9 0.00 0.16 0.16 93 1014.9
20260903114153 61 301 0.0 0.9 0.00 0.16 0.16 93 1014.9
20260903113634 61 301 0.0 0.0 0.00 0.16 0.16 93 1014.9
20260903112153 61 301 0.0 0.0 0.00 0.16 0.16 93 1014.9
20260903111152 61 301 0.0 0.0 0.00 0.16 0.16 93 1014.9
20260903110152 61 143 0.0 0.0 0.00 0.16 0.16 92 1014.9
20260903105152 61 143 0.0 0.0 0.00 0.16 0.16 92 1014.9
20260903104150 61 143 0.0 0.0 0.01 0.16 0.16 92 1014.9
20260903103154 61 143 0.0 0.0 0.02 0.16 0.16 92 1014.9
20260903102151 61 143 0.0 0.0 0.02 0.16 0.16 92 1014.9
20260903101617 61 143 0.0 0.0 0.05 0.16 0.16 92 1014.8
20260903100138 61 143 0.0 0.0 0.06 0.16 0.16 92 1014.8
20260903095137 61 143 0.0 0.9 0.07 0.16 0.16 92 1014.9
20260903094611 61 143 0.0 1.7 0.08 0.15 0.15 91 1015.0
20260903093136 61 143 0.0 0.0 0.07 0.14 0.14 91 1015.0
20260903092138 61 143 0.0 0.0 0.07 0.14 0.14 91 1015.5
20260903091131 61 143 0.0 0.0 0.04 0.11 0.11 91 1015.3
20260903090131 61 143 0.0 1.7 0.03 0.10 0.10 91 1015.3
20260903085130 62 176 0.0 2.6 0.03 0.07 0.09 90 1015.4
20260903084130 62 202 0.0 1.7 0.07 0.07 0.07 90 1015.4
20260903083607 62 202 0.0 0.0 0.07 0.07 0.07 89 1015.4
20260903082129 62 203 0.0 0.0 0.07 0.07 0.07 89 1015.5
20260903081129 63 203 0.0 0.0 0.07 0.07 0.07 88 1015.2
20260903080128 63 202 0.0 1.7 0.07 0.07 0.07 87 1015.2
20260903075128 63 301 0.9 3.5 0.04 0.04 0.05 86 1015.5
20260903074128 63 214 0.0 3.5 0.00 0.00 0.00 86 1015.5
20260903073129 63 153 0.9 2.6 0.00 0.00 0.00 86 1015.5
20260903072603 63 191 0.0 2.6 0.00 0.00 0.00 86 1015.7
20260903071125 63 173 0.0 3.5 0.00 0.00 0.00 86 1015.7
20260903070121 63 148 0.0 2.6 0.00 0.00 0.00 86 1015.7
20260903065559 63 169 0.9 5.2 0.00 0.00 0.00 86 1016.0
20260903064120 63 180 1.7 6.1 0.00 0.00 0.00 86 1016.7
20260903063120 63 209 0.9 2.6 0.00 0.00 0.00 86 1016.7
20260903062120 63 153 0.9 4.3 0.00 0.00 0.00 86 1017.0
20260903061120 63 91 0.0 3.5 0.00 0.00 0.00 86 1017.4
20260903060121 63 181 0.0 3.5 0.00 0.00 0.00 86 1017.4
20260903055121 63 191 0.9 3.5 0.00 0.00 0.00 86 1017.7
20260903054104 63 211 0.0 3.5 0.00 0.00 0.00 86 1018.1
20260903053104 63 179 0.0 1.7 0.00 0.00 0.00 86 1018.1
20260903052103 63 224 0.9 4.3 0.00 0.00 0.00 86 1017.7
20260903051535 63 193 0.9 3.5 0.00 0.00 0.00 86 1017.5